EA3CTN-13 Weather Reports


time (UTC)temp
C
wind
direction
speed
KPH
gust
KPH
rain 1hr
cm
rain 24hr
cm
rain mn
cm
humidity
%
barometer
mb
20260504175718 21 0.0 0.0 0.00 0.00 0.00 60 1011.1
20260504174918 21 0.0 0.0 0.00 0.00 0.00 60 1011.2
20260504174118 21 0.0 0.0 0.00 0.00 0.00 60 1011.3
20260504173318 21 0.0 0.0 0.00 0.00 0.00 58 1011.3
20260504172518 21 0.0 0.0 0.00 0.00 0.00 58 1011.2
20260504171718 21 0.0 0.0 0.00 0.00 0.00 57 1011.1
20260504170918 21 0.0 0.0 0.00 0.00 0.00 59 1011.2
20260504170118 21 0.0 0.0 0.00 0.00 0.00 59 1011.4
20260504150918 20 0.0 0.0 0.00 0.00 0.00 61 1011.8
20260504150118 20 0.0 0.0 0.00 0.00 0.00 61 1011.8
20260504141318 20 0.0 0.0 0.00 0.00 0.00 61 1012.1
20260504140518 21 0.0 0.0 0.00 0.00 0.00 60 1012.3
20260504130118 21 0.0 0.0 0.00 0.00 0.00 58 1012.3
20260504110118 21 0.0 0.0 0.00 0.00 0.00 55 1012.6
20260504100518 21 0.0 0.0 0.00 0.00 0.00 56 1012.9
20260504090118 21 0.0 0.0 0.00 0.00 0.00 55 1012.8
20260503222117 18 0.0 0.0 0.00 0.00 0.00 67 1015.2
20260503221320 18 0.0 0.0 0.00 0.00 0.00 67 1015.2
20260503220517 18 0.0 0.0 0.00 0.00 0.00 67 1015.2
20260503215717 18 0.0 0.0 0.00 0.00 0.00 67 1015.2
20260503214917 18 0.0 0.0 0.00 0.00 0.00 66 1015.1
20260503214117 18 0.0 0.0 0.00 0.00 0.00 66 1015.3
20260503213318 18 0.0 0.0 0.00 0.00 0.00 67 1015.3
20260503212517 18 0.0 0.0 0.00 0.00 0.00 66 1015.2
20260503211717 18 0.0 0.0 0.00 0.00 0.00 66 1015.2
20260503210912 18 0.0 0.0 0.00 0.00 0.00 66 1015.3
20260503210117 18 0.0 0.0 0.00 0.00 0.00 66 1015.4
20260503205317 18 0.0 0.0 0.00 0.00 0.00 66 1015.3
20260503204517 18 0.0 0.0 0.00 0.00 0.00 68 1015.4